Find OneWeb SL0579

NORAD ID: 56068 Int'l Des: 2023-043 Owner: ONEWEBN Country: UK Constellation: oneweb operational
LEOCIRCULARPOLARONEWEB_TYPE

現在のビュー

3D地球を読み込み中...

OneWeb SL0579について

説明を読み込み中...

次回通過

Passes for default location (London). Set your location on the main map for personalized predictions.

高度履歴

Loading altitude history...

軌道要素

1 56068U 23043Y 26151.21392391 .00000070 00000-0 13800-3 0 9994
2 56068 87.9263 247.3447 0001797 96.5535 263.5804 13.21825202156006
Epoch: May 31, 2026 • Age: 5 hours

現在のステータス

高度 1204.1 km
速度 7.25 km/s
衛星直下点 -66.01°S, 32.91°E
打ち上げ日 Mar 26, 2023
運用期間 3.1 years
タイプ internet

技術仕様

分類 Payload
質量 148.00 kg
乾燥質量 140.00 kg
総質量 148.00 kg
長さ 1.30 m
直径 1.00 m
スパン 5.00 m
形状 Trapezoid+2 pan
製造者 ONEWUS
バスタイプ ARROW
フェーズステータス In Orbit
所有者/国 ONEWEBN/UK

Most Searched